User: anonymous   Login
Location: Huntington Beach
(33.6600°N, 117.9980°W)
Time: 21:56:31
(UTC-07:00)
Language:

Hubble Space Telescope - Orbit

View from above orbital plane
View from above orbital plane
View from above satellite
View from above satellite

Ground track
Ground track

The orbit data is extracted from the following two-line orbital elements,

1 20580U 90037B   17141.94296296 +.00000515 +00000-0 +20801-4 0  9991
2 20580 028.4686 180.9361 0002482 249.3495 132.0852 15.08765464286239
Epoch (UTC): 21 May 2017 22:37:52
Eccentricity: 0.0002482
inclination: 28.4686°
perigee height: 538 km
apogee height: 541 km
right ascension of ascending node: 180.9361°
argument of perigee: 249.3495°
revolutions per day: 15.08765464
mean anomaly at epoch: 132.0852°
orbit number at epoch: 28623

The dashed part of the orbit path shows where the satellite is in the earth's shadow,  

DLR